| time (UTC) | temp F | wind direction | speed knots | gust knots | rain 1hr in | rain 24hr in | rain mn in | humidity % | barometer mb |
| 20260504231716 | 56 | 301 | 1.7 | 3.5 | 0.00 | 0.00 | 0.00 | 82 | 1002.4 |
| 20260504231213 | 57 | 267 | 2.6 | 6.1 | 0.00 | 0.00 | 0.00 | 81 | 1002.5 |
| 20260504230709 | 57 | 213 | 3.5 | 7.8 | 0.00 | 0.00 | 0.00 | 81 | 1002.5 |
| 20260504230208 | 57 | 210 | 3.5 | 5.2 | 0.00 | 0.00 | 0.00 | 80 | 1002.5 |
| 20260504225706 | 57 | 263 | 3.5 | 7.0 | 0.00 | 0.00 | 0.00 | 79 | 1002.1 |
| 20260504225202 | 57 | 270 | 1.7 | 5.2 | 0.00 | 0.00 | 0.00 | 80 | 1002.1 |
| 20260504224700 | 58 | 236 | 3.5 | 7.0 | 0.00 | 0.00 | 0.00 | 78 | 1002.0 |
| 20260504224156 | 58 | 210 | 0.0 | 6.1 | 0.00 | 0.00 | 0.00 | 78 | 1002.0 |
| 20260504223653 | 58 | 241 | 1.7 | 3.5 | 0.00 | 0.00 | 0.00 | 78 | 1001.7 |
| 20260504223148 | 59 | 265 | 3.5 | 5.2 | 0.00 | 0.00 | 0.00 | 77 | 1001.8 |
| 20260504222646 | 59 | 288 | 3.5 | 6.1 | 0.00 | 0.00 | 0.00 | 76 | 1001.7 |
| 20260504222142 | 59 | 270 | 0.9 | 6.1 | 0.00 | 0.00 | 0.00 | 76 | 1001.7 |
| 20260504221640 | 59 | 215 | 4.3 | 5.2 | 0.00 | 0.00 | 0.00 | 76 | 1001.5 |
| 20260504221137 | 59 | 231 | 4.3 | 7.8 | 0.00 | 0.00 | 0.00 | 75 | 1001.8 |
| 20260504220633 | 59 | 223 | 4.3 | 7.0 | 0.00 | 0.00 | 0.00 | 75 | 1001.5 |
| 20260504220131 | 59 | 251 | 1.7 | 9.6 | 0.00 | 0.00 | 0.00 | 75 | 1001.5 |
| 20260504215626 | 59 | 214 | 1.7 | 5.2 | 0.00 | 0.00 | 0.00 | 75 | 1001.3 |
| 20260504215119 | 59 | 256 | 4.3 | 6.1 | 0.00 | 0.00 | 0.00 | 75 | 1001.5 |
| 20260504214615 | 59 | 283 | 1.7 | 5.2 | 0.00 | 0.00 | 0.00 | 74 | 1001.3 |
| 20260504214111 | 59 | 255 | 0.9 | 6.1 | 0.00 | 0.00 | 0.00 | 75 | 1001.3 |
| 20260504213608 | 59 | 268 | 3.5 | 7.0 | 0.00 | 0.00 | 0.00 | 75 | 1001.5 |
| 20260504213105 | 59 | 264 | 4.3 | 7.0 | 0.00 | 0.00 | 0.00 | 75 | 1001.4 |
| 20260504212600 | 59 | 223 | 3.5 | 7.0 | 0.00 | 0.00 | 0.00 | 74 | 1001.3 |
| 20260504212058 | 60 | 186 | 0.9 | 7.0 | 0.00 | 0.00 | 0.00 | 73 | 1001.2 |
| 20260504211555 | 59 | 207 | 0.0 | 5.2 | 0.00 | 0.00 | 0.00 | 73 | 1001.2 |
| 20260504211051 | 59 | 262 | 4.3 | 6.1 | 0.00 | 0.00 | 0.00 | 74 | 1001.3 |
| 20260504210549 | 59 | 241 | 3.5 | 7.8 | 0.00 | 0.00 | 0.00 | 74 | 1001.0 |
| 20260504210045 | 58 | 266 | 2.6 | 10.4 | 0.00 | 0.00 | 0.00 | 74 | 1001.1 |
| 20260504205543 | 59 | 215 | 4.3 | 13.0 | 0.00 | 0.00 | 0.00 | 74 | 1001.2 |
| 20260504205041 | 59 | 225 | 5.2 | 6.1 | 0.00 | 0.00 | 0.00 | 74 | 1001.3 |
| 20260504204539 | 59 | 246 | 5.2 | 6.1 | 0.00 | 0.00 | 0.00 | 74 | 1001.2 |
| 20260504204038 | 59 | 210 | 5.2 | 7.0 | 0.00 | 0.00 | 0.00 | 73 | 1001.3 |
| 20260504203535 | 58 | 238 | 4.3 | 7.0 | 0.00 | 0.00 | 0.00 | 74 | 1001.0 |
| 20260504203032 | 57 | 239 | 6.1 | 7.8 | 0.00 | 0.00 | 0.00 | 75 | 1001.0 |
| 20260504202528 | 58 | 225 | 4.3 | 7.8 | 0.00 | 0.00 | 0.00 | 75 | 1001.2 |
| 20260504202025 | 58 | 257 | 5.2 | 8.7 | 0.00 | 0.00 | 0.00 | 76 | 1001.2 |
| 20260504201522 | 58 | 226 | 6.1 | 8.7 | 0.00 | 0.00 | 0.00 | 75 | 1001.2 |
| 20260504201020 | 58 | 229 | 6.1 | 8.7 | 0.00 | 0.00 | 0.00 | 75 | 1001.2 |
| 20260504200516 | 58 | 249 | 2.6 | 5.2 | 0.00 | 0.00 | 0.00 | 76 | 1001.3 |
| 20260504200013 | 58 | 220 | 2.6 | 3.5 | 0.00 | 0.00 | 0.00 | 75 | 1000.8 |
| 20260504195509 | 58 | 232 | 4.3 | 7.0 | 0.00 | 0.00 | 0.00 | 75 | 1001.1 |
| 20260504195006 | 58 | 214 | 3.5 | 7.0 | 0.00 | 0.00 | 0.00 | 76 | 1000.9 |
| 20260504194502 | 57 | 237 | 4.3 | 6.1 | 0.00 | 0.00 | 0.00 | 77 | 1001.0 |
| 20260504193957 | 58 | 270 | 2.6 | 3.5 | 0.00 | 0.00 | 0.00 | 77 | 1001.1 |
| 20260504193455 | 58 | 243 | 0.9 | 5.2 | 0.00 | 0.00 | 0.00 | 77 | 1000.8 |
| 20260504192954 | 57 | 257 | 1.7 | 7.0 | 0.00 | 0.00 | 0.00 | 76 | 1001.1 |
| 20260504192450 | 58 | 238 | 2.6 | 4.3 | 0.00 | 0.00 | 0.00 | 78 | 1001.2 |
| 20260504191949 | 57 | 222 | 6.1 | 7.0 | 0.00 | 0.00 | 0.00 | 77 | 1001.2 |
| 20260504191447 | 58 | 270 | 1.7 | 7.8 | 0.00 | 0.00 | 0.00 | 75 | 1001.4 |
| 20260504190942 | 58 | 231 | 7.8 | 7.8 | 0.00 | 0.00 | 0.00 | 75 | 1001.4 |
| 20260504190438 | 58 | 238 | 2.6 | 5.2 | 0.00 | 0.00 | 0.00 | 73 | 1001.3 |
| 20260504185935 | 58 | 248 | 4.3 | 7.8 | 0.00 | 0.00 | 0.00 | 72 | 1001.3 |
| 20260504185432 | 59 | 242 | 9.6 | 14.8 | 0.00 | 0.00 | 0.00 | 71 | 1001.2 |
| 20260504184928 | 59 | 239 | 4.3 | 12.2 | 0.00 | 0.00 | 0.00 | 67 | 1001.2 |
| 20260504184424 | 60 | 233 | 6.1 | 11.3 | 0.00 | 0.00 | 0.00 | 65 | 1001.0 |
| 20260504183920 | 60 | 222 | 6.1 | 10.4 | 0.00 | 0.00 | 0.00 | 62 | 1000.9 |
| 20260504183417 | 61 | 255 | 6.1 | 11.3 | 0.00 | 0.00 | 0.00 | 60 | 1000.9 |
| 20260504182915 | 61 | 227 | 2.6 | 13.9 | 0.00 | 0.00 | 0.00 | 57 | 1000.7 |
| 20260504182412 | 62 | 208 | 7.0 | 11.3 | 0.00 | 0.00 | 0.00 | 53 | 1000.4 |
| 20260504181909 | 62 | 270 | 1.7 | 7.8 | 0.00 | 0.00 | 0.00 | 50 | 1000.4 |
| 20260504181406 | 63 | 245 | 5.2 | 13.0 | 0.00 | 0.00 | 0.00 | 50 | 1000.3 |
| 20260504180905 | 64 | 242 | 5.2 | 6.1 | 0.00 | 0.00 | 0.00 | 48 | 1000.0 |
| 20260504180403 | 63 | 233 | 4.3 | 5.2 | 0.00 | 0.00 | 0.00 | 48 | 1000.2 |
| 20260504175901 | 64 | 227 | 2.6 | 10.4 | 0.00 | 0.00 | 0.00 | 49 | 999.9 |
| 20260504175357 | 65 | 238 | 5.2 | 8.7 | 0.00 | 0.00 | 0.00 | 46 | 1000.1 |
| 20260504174855 | 64 | 225 | 3.5 | 6.1 | 0.00 | 0.00 | 0.00 | 47 | 1000.0 |
| 20260504174353 | 66 | 267 | 2.6 | 7.0 | 0.00 | 0.00 | 0.00 | 46 | 1000.0 |
| 20260504173850 | 64 | 236 | 4.3 | 4.3 | 0.00 | 0.00 | 0.00 | 44 | 1000.1 |
| 20260504173346 | 62 | 254 | 1.7 | 6.1 | 0.00 | 0.00 | 0.00 | 46 | 999.9 |
| 20260504172843 | 63 | 253 | 1.7 | 4.3 | 0.00 | 0.00 | 0.00 | 46 | 999.9 |
| 20260504172340 | 64 | 259 | 1.7 | 3.5 | 0.00 | 0.00 | 0.00 | 43 | 1000.0 |
| 20260504171835 | 64 | 274 | 3.5 | 6.1 | 0.00 | 0.00 | 0.00 | 44 | 1000.1 |
| 20260504171333 | 64 | 301 | 7.8 | 7.8 | 0.00 | 0.00 | 0.00 | 42 | 1000.3 |
| 20260504170830 | 63 | 230 | 4.3 | 8.7 | 0.00 | 0.00 | 0.00 | 44 | 1000.4 |
| 20260504170327 | 65 | 254 | 0.0 | 8.7 | 0.00 | 0.00 | 0.00 | 43 | 1000.4 |
| 20260504160245 | 61 | 286 | 0.9 | 5.2 | 0.00 | 0.00 | 0.00 | 47 | 1001.0 |
| 20260504150711 | 58 | 270 | 2.6 | 13.0 | 0.00 | 0.00 | 0.00 | 51 | 1001.6 |
| 20260504150207 | 58 | 270 | 7.0 | 10.4 | 0.00 | 0.00 | 0.00 | 49 | 1001.7 |
| 20260504141137 | 56 | 234 | 2.6 | 9.6 | 0.00 | 0.00 | 0.00 | 52 | 1002.0 |
| 20260504140633 | 55 | 234 | 4.3 | 14.8 | 0.00 | 0.00 | 0.00 | 59 | 1002.0 |
| 20260504140129 | 55 | 270 | 1.7 | 6.1 | 0.00 | 0.00 | 0.00 | 56 | 1001.7 |
| 20260504130557 | 51 | 270 | 0.0 | 5.2 | 0.00 | 0.00 | 0.00 | 72 | 1001.9 |
| 20260504110445 | 45 | 253 | 2.6 | 5.2 | 0.00 | 0.00 | 0.00 | 86 | 1001.2 |
| 20260504100401 | 43 | 240 | 1.7 | 3.5 | 0.00 | 0.00 | 0.00 | 93 | 1000.5 |
| 20260504081755 | 44 | 255 | 1.7 | 7.0 | 0.00 | 0.00 | 0.00 | 93 | 999.2 |
| 20260504081251 | 44 | 228 | 1.7 | 5.2 | 0.00 | 0.00 | 0.00 | 94 | 999.0 |
| 20260504080747 | 44 | 147 | 1.7 | 6.1 | 0.00 | 0.00 | 0.00 | 94 | 998.8 |
| 20260504080244 | 44 | 229 | 2.6 | 7.8 | 0.00 | 0.00 | 0.00 | 93 | 998.8 |
| 20260504070212 | 46 | 289 | 1.7 | 3.5 | 0.00 | 0.00 | 0.00 | 94 | 998.1 |
| 20260504060132 | 47 | 237 | 0.0 | 4.3 | 0.00 | 0.00 | 0.00 | 96 | 997.7 |
| 20260504050600 | 47 | 278 | 0.0 | 4.3 | 0.00 | 0.00 | 0.00 | 99 | 997.7 |
| 20260504045554 | 47 | 0 | 0.9 | 2.6 | 0.00 | 0.00 | 0.00 | 99 | 997.7 |
| 20260504045049 | 47 | 283 | 0.0 | 5.2 | 0.00 | 0.00 | 0.00 | 99 | 997.5 |
| 20260504044547 | 47 | 270 | 3.5 | 7.0 | 0.00 | 0.00 | 0.00 | 99 | 997.3 |
| 20260504044044 | 47 | 270 | 0.9 | 3.5 | 0.00 | 0.00 | 0.00 | 99 | 997.5 |
| 20260504043541 | 47 | 282 | 5.2 | 7.8 | 0.00 | 0.00 | 0.00 | 99 | 997.4 |
| 20260504043038 | 47 | 308 | 2.6 | 5.2 | 0.00 | 0.00 | 0.00 | 99 | 997.6 |
| 20260504042535 | 47 | 297 | 2.6 | 7.0 | 0.00 | 0.00 | 0.00 | 99 | 997.4 |
| 20260504042032 | 47 | 289 | 0.9 | 5.2 | 0.00 | 0.00 | 0.00 | 99 | 997.4 |
| 20260504041528 | 47 | 270 | 1.7 | 4.3 | 0.00 | 0.00 | 0.00 | 99 | 997.4 |
| 20260504041024 | 47 | 285 | 0.9 | 4.3 | 0.02 | 0.00 | 0.00 | 99 | 997.3 |
| 20260504040522 | 47 | 264 | 1.7 | 7.0 | 0.02 | 0.00 | 0.00 | 99 | 997.1 |
| 20260504040018 | 47 | 300 | 0.9 | 5.2 | 0.00 | 0.00 | 0.00 | 99 | 997.3 |
| 20260504035515 | 47 | 248 | 0.0 | 2.6 | 0.00 | 0.00 | 0.00 | 99 | 997.2 |
| 20260504035011 | 47 | 235 | 0.0 | 4.3 | 0.00 | 0.00 | 0.00 | 99 | 997.2 |
| 20260504034509 | 47 | 265 | 2.6 | 3.5 | 0.00 | 0.00 | 0.00 | 99 | 997.2 |
| 20260504034006 | 47 | 258 | 0.9 | 5.2 | 0.00 | 0.00 | 0.00 | 99 | 997.1 |
| 20260504033504 | 47 | 281 | 1.7 | 4.3 | 0.00 | 0.00 | 0.00 | 99 | 997.1 |
| 20260504033001 | 48 | 273 | 2.6 | 2.6 | 0.00 | 0.00 | 0.00 | 99 | 997.1 |
| 20260504032458 | 47 | 322 | 2.6 | 6.1 | 0.00 | 0.00 | 0.00 | 99 | 996.7 |
| 20260504031954 | 47 | 225 | 2.6 | 4.3 | 0.00 | 0.00 | 0.00 | 99 | 996.7 |
| 20260504031451 | 47 | 264 | 2.6 | 4.3 | 0.00 | 0.00 | 0.00 | 99 | 996.9 |
| 20260504030948 | 47 | 237 | 2.6 | 4.3 | 0.00 | 0.00 | 0.00 | 99 | 996.8 |
| 20260504030445 | 47 | 270 | 1.7 | 4.3 | 0.00 | 0.00 | 0.00 | 99 | 996.7 |
| 20260504025941 | 47 | 260 | 0.0 | 3.5 | 0.00 | 0.00 | 0.00 | 99 | 996.8 |
| 20260504025438 | 47 | 256 | 3.5 | 6.1 | 0.00 | 0.00 | 0.00 | 99 | 996.8 |
| 20260504024935 | 47 | 263 | 2.6 | 4.3 | 0.00 | 0.00 | 0.00 | 99 | 996.8 |
| 20260504024432 | 47 | 273 | 2.6 | 2.6 | 0.00 | 0.00 | 0.00 | 99 | 997.0 |
| 20260504023929 | 47 | 17 | 0.0 | 3.5 | 0.00 | 0.00 | 0.00 | 99 | 996.8 |
| 20260504023425 | 47 | 266 | 1.7 | 4.3 | 0.00 | 0.00 | 0.00 | 99 | 996.7 |
| 20260504022921 | 46 | 285 | 0.0 | 6.1 | 0.00 | 1.14 | 1.14 | 99 | 997.1 |
| 20260504022418 | 47 | 261 | 2.6 | 3.5 | 0.00 | 1.14 | 1.14 | 99 | 996.8 |
| 20260504021914 | 46 | 319 | 1.7 | 6.1 | 0.00 | 1.14 | 1.14 | 99 | 996.8 |
| 20260504021412 | 47 | 249 | 2.6 | 3.5 | 0.00 | 1.14 | 1.14 | 99 | 996.8 |
| 20260504020909 | 46 | 270 | 0.9 | 5.2 | 0.00 | 1.14 | 1.14 | 99 | 996.6 |
| 20260504020405 | 47 | 270 | 3.5 | 4.3 | 0.00 | 1.14 | 1.14 | 99 | 996.6 |
| 20260504015902 | 47 | 290 | 1.7 | 2.6 | 0.00 | 1.14 | 1.14 | 99 | 996.5 |
| 20260504015358 | 47 | 150 | 3.5 | 4.3 | 0.00 | 1.14 | 1.14 | 99 | 996.8 |
| 20260504014854 | 47 | 261 | 1.7 | 3.5 | 0.00 | 1.14 | 1.14 | 99 | 996.8 |
| 20260504014350 | 47 | 286 | 0.0 | 3.5 | 0.00 | 1.14 | 1.14 | 99 | 996.7 |
| 20260504013848 | 47 | 120 | 0.0 | 2.6 | 0.00 | 1.14 | 1.14 | 99 | 996.7 |
| 20260504013345 | 47 | 333 | 0.0 | 3.5 | 0.00 | 1.14 | 1.14 | 99 | 996.8 |
| 20260504012842 | 47 | 76 | 2.6 | 4.3 | 0.00 | 1.14 | 1.14 | 99 | 996.6 |
| 20260504012340 | 47 | 0 | 0.0 | 3.5 | 0.00 | 1.14 | 1.14 | 99 | 996.5 |
| 20260504011837 | 47 | 200 | 0.0 | 4.3 | 0.00 | 1.14 | 1.14 | 99 | 996.8 |
| 20260504011333 | 47 | 246 | 1.7 | 5.2 | 0.02 | 1.14 | 1.14 | 99 | 996.4 |
| 20260504010830 | 47 | 180 | 1.7 | 3.5 | 0.02 | 1.14 | 1.14 | 99 | 996.4 |
| 20260504010325 | 47 | 70 | 1.7 | 6.1 | 0.00 | 1.13 | 1.13 | 99 | 996.5 |
| 20260504005822 | 47 | 244 | 0.0 | 2.6 | 0.02 | 1.13 | 1.13 | 99 | 996.4 |
| 20260504005319 | 47 | 185 | 0.0 | 3.5 | 0.05 | 1.13 | 1.13 | 99 | 996.4 |
| 20260504004816 | 47 | 192 | 1.7 | 4.3 | 0.05 | 1.13 | 1.13 | 99 | 996.2 |
| 20260504004314 | 47 | 252 | 1.7 | 4.3 | 0.02 | 1.13 | 1.13 | 99 | 996.3 |
| 20260504003810 | 47 | 276 | 1.7 | 6.1 | 0.02 | 1.12 | 1.12 | 99 | 996.4 |
| 20260504003307 | 48 | 75 | 2.6 | 3.5 | 0.02 | 1.12 | 1.12 | 99 | 996.2 |
| 20260504002803 | 47 | 108 | 4.3 | 8.7 | 0.02 | 1.12 | 1.12 | 99 | 996.2 |
| 20260504002301 | 48 | 12 | 1.7 | 7.0 | 0.02 | 1.11 | 1.11 | 99 | 996.3 |
| 20260504001758 | 47 | 152 | 2.6 | 7.8 | 0.02 | 1.11 | 1.11 | 99 | 996.3 |
| 20260504001255 | 48 | 11 | 0.9 | 6.1 | 0.02 | 1.11 | 1.11 | 99 | 996.1 |
| 20260504000752 | 48 | 270 | 1.7 | 7.8 | 0.05 | 1.11 | 1.11 | 99 | 996.0 |
| 20260504000249 | 47 | 33 | 2.6 | 13.0 | 0.02 | 1.11 | 1.11 | 99 | 996.3 |
| 20260503235747 | 48 | 354 | 2.6 | 9.6 | 0.02 | 1.10 | 1.10 | 99 | 996.1 |
| 20260503235244 | 47 | 2 | 3.5 | 13.0 | 0.02 | 1.10 | 1.10 | 99 | 996.1 |
| 20260503234741 | 48 | 251 | 1.7 | 10.4 | 0.02 | 1.10 | 1.10 | 99 | 996.0 |
| 20260503234239 | 48 | 239 | 1.7 | 7.8 | 0.05 | 1.10 | 1.10 | 99 | 996.2 |
| 20260503233736 | 48 | 202 | 1.7 | 8.7 | 0.05 | 1.09 | 1.09 | 99 | 996.2 |
| 20260503233232 | 48 | 37 | 4.3 | 9.6 | 0.05 | 1.09 | 1.09 | 99 | 996.0 |
| 20260503232729 | 48 | 17 | 6.1 | 13.0 | 0.05 | 1.09 | 1.09 | 99 | 996.2 |
| 20260503232226 | 48 | 29 | 7.8 | 9.6 | 0.07 | 1.08 | 1.08 | 99 | 996.0 |